<?xml version="1.0"?>
<gpx xmlns="http://www.topografix.com/GPX/1/1" xmlns:xsi="http://www.w3.org/2001/XMLSchema-instance" version="1.1" creator="GPX RubyGem 1.0.0 -- http://dougfales.github.io/gpx/" xsi:schemaLocation="http://www.topografix.com/GPX/1/1 http://www.topografix.com/GPX/1/1/gpx.xsd">
  <metadata>
    <name/>
    <time>2026-05-10T02:07:20+00:00</time>
    <bound minlat="90.0" minlon="180.0" maxlat="-90.0" maxlon="-180.0"/>
  </metadata>
  <trk>
    <name/>
    <trkseg>
      <trkpt lat="50.320872" lon="7.586181">
        <time>1970-01-01T00:00:00+00:00</time>
        <ele>101.0</ele>
      </trkpt>
      <trkpt lat="50.32126" lon="7.586078">
        <time>1970-01-01T00:00:00+00:00</time>
        <ele>96.0</ele>
      </trkpt>
      <trkpt lat="50.321341" lon="7.586185">
        <time>1970-01-01T00:00:00+00:00</time>
        <ele>90.0</ele>
      </trkpt>
      <trkpt lat="50.321424" lon="7.586293">
        <time>1970-01-01T00:00:00+00:00</time>
        <ele>85.0</ele>
      </trkpt>
      <trkpt lat="50.322291" lon="7.586054">
        <time>1970-01-01T00:00:00+00:00</time>
        <ele>77.0</ele>
      </trkpt>
      <trkpt lat="50.322825" lon="7.585906">
        <time>1970-01-01T00:00:00+00:00</time>
        <ele>72.0</ele>
      </trkpt>
      <trkpt lat="50.322986" lon="7.585862">
        <time>1970-01-01T00:00:00+00:00</time>
        <ele>72.0</ele>
      </trkpt>
      <trkpt lat="50.322975" lon="7.585777">
        <time>1970-01-01T00:00:00+00:00</time>
        <ele>73.0</ele>
      </trkpt>
      <trkpt lat="50.322916" lon="7.585795">
        <time>1970-01-01T00:00:00+00:00</time>
        <ele>73.0</ele>
      </trkpt>
      <trkpt lat="50.322911" lon="7.58576">
        <time>1970-01-01T00:00:00+00:00</time>
        <ele>74.0</ele>
      </trkpt>
      <trkpt lat="50.323112" lon="7.585695">
        <time>1970-01-01T00:00:00+00:00</time>
        <ele>75.0</ele>
      </trkpt>
      <trkpt lat="50.323081" lon="7.585449">
        <time>1970-01-01T00:00:00+00:00</time>
        <ele>81.0</ele>
      </trkpt>
      <trkpt lat="50.323094" lon="7.585346">
        <time>1970-01-01T00:00:00+00:00</time>
        <ele>83.0</ele>
      </trkpt>
      <trkpt lat="50.322903" lon="7.585296">
        <time>1970-01-01T00:00:00+00:00</time>
        <ele>84.0</ele>
      </trkpt>
      <trkpt lat="50.32252" lon="7.584792">
        <time>1970-01-01T00:00:00+00:00</time>
        <ele>107.0</ele>
      </trkpt>
      <trkpt lat="50.322411" lon="7.584597">
        <time>1970-01-01T00:00:00+00:00</time>
        <ele>116.0</ele>
      </trkpt>
      <trkpt lat="50.322352" lon="7.584583">
        <time>1970-01-01T00:00:00+00:00</time>
        <ele>117.0</ele>
      </trkpt>
      <trkpt lat="50.322329" lon="7.584663">
        <time>1970-01-01T00:00:00+00:00</time>
        <ele>115.0</ele>
      </trkpt>
      <trkpt lat="50.322198" lon="7.584366">
        <time>1970-01-01T00:00:00+00:00</time>
        <ele>126.0</ele>
      </trkpt>
      <trkpt lat="50.321967" lon="7.584109">
        <time>1970-01-01T00:00:00+00:00</time>
        <ele>139.0</ele>
      </trkpt>
      <trkpt lat="50.321856" lon="7.583732">
        <time>1970-01-01T00:00:00+00:00</time>
        <ele>145.0</ele>
      </trkpt>
      <trkpt lat="50.321685" lon="7.583253">
        <time>1970-01-01T00:00:00+00:00</time>
        <ele>154.0</ele>
      </trkpt>
      <trkpt lat="50.321673" lon="7.583358">
        <time>1970-01-01T00:00:00+00:00</time>
        <ele>154.0</ele>
      </trkpt>
      <trkpt lat="50.321696" lon="7.583513">
        <time>1970-01-01T00:00:00+00:00</time>
        <ele>152.0</ele>
      </trkpt>
      <trkpt lat="50.321694" lon="7.583641">
        <time>1970-01-01T00:00:00+00:00</time>
        <ele>152.0</ele>
      </trkpt>
      <trkpt lat="50.32176" lon="7.583979">
        <time>1970-01-01T00:00:00+00:00</time>
        <ele>148.0</ele>
      </trkpt>
      <trkpt lat="50.321781" lon="7.584217">
        <time>1970-01-01T00:00:00+00:00</time>
        <ele>144.0</ele>
      </trkpt>
      <trkpt lat="50.321777" lon="7.584323">
        <time>1970-01-01T00:00:00+00:00</time>
        <ele>141.0</ele>
      </trkpt>
      <trkpt lat="50.321566" lon="7.584078">
        <time>1970-01-01T00:00:00+00:00</time>
        <ele>156.0</ele>
      </trkpt>
      <trkpt lat="50.3212" lon="7.583016">
        <time>1970-01-01T00:00:00+00:00</time>
        <ele>169.0</ele>
      </trkpt>
      <trkpt lat="50.320842" lon="7.582491">
        <time>1970-01-01T00:00:00+00:00</time>
        <ele>177.0</ele>
      </trkpt>
      <trkpt lat="50.320561" lon="7.582145">
        <time>1970-01-01T00:00:00+00:00</time>
        <ele>181.0</ele>
      </trkpt>
      <trkpt lat="50.320205" lon="7.581941">
        <time>1970-01-01T00:00:00+00:00</time>
        <ele>186.0</ele>
      </trkpt>
      <trkpt lat="50.319593" lon="7.581655">
        <time>1970-01-01T00:00:00+00:00</time>
        <ele>195.0</ele>
      </trkpt>
      <trkpt lat="50.319338" lon="7.581691">
        <time>1970-01-01T00:00:00+00:00</time>
        <ele>200.0</ele>
      </trkpt>
      <trkpt lat="50.318886" lon="7.581968">
        <time>1970-01-01T00:00:00+00:00</time>
        <ele>208.0</ele>
      </trkpt>
      <trkpt lat="50.318623" lon="7.582243">
        <time>1970-01-01T00:00:00+00:00</time>
        <ele>215.0</ele>
      </trkpt>
      <trkpt lat="50.318135" lon="7.582603">
        <time>1970-01-01T00:00:00+00:00</time>
        <ele>220.0</ele>
      </trkpt>
      <trkpt lat="50.317729" lon="7.582861">
        <time>1970-01-01T00:00:00+00:00</time>
        <ele>226.0</ele>
      </trkpt>
      <trkpt lat="50.317439" lon="7.582998">
        <time>1970-01-01T00:00:00+00:00</time>
        <ele>228.0</ele>
      </trkpt>
      <trkpt lat="50.317351" lon="7.583101">
        <time>1970-01-01T00:00:00+00:00</time>
        <ele>229.0</ele>
      </trkpt>
      <trkpt lat="50.317275" lon="7.583127">
        <time>1970-01-01T00:00:00+00:00</time>
        <ele>229.0</ele>
      </trkpt>
      <trkpt lat="50.317089" lon="7.583157">
        <time>1970-01-01T00:00:00+00:00</time>
        <ele>230.0</ele>
      </trkpt>
      <trkpt lat="50.316847" lon="7.583204">
        <time>1970-01-01T00:00:00+00:00</time>
        <ele>232.0</ele>
      </trkpt>
      <trkpt lat="50.316432" lon="7.5832">
        <time>1970-01-01T00:00:00+00:00</time>
        <ele>234.0</ele>
      </trkpt>
      <trkpt lat="50.31663" lon="7.583786">
        <time>1970-01-01T00:00:00+00:00</time>
        <ele>235.0</ele>
      </trkpt>
      <trkpt lat="50.31649" lon="7.583896">
        <time>1970-01-01T00:00:00+00:00</time>
        <ele>236.0</ele>
      </trkpt>
      <trkpt lat="50.31622" lon="7.584288">
        <time>1970-01-01T00:00:00+00:00</time>
        <ele>233.0</ele>
      </trkpt>
      <trkpt lat="50.316034" lon="7.584451">
        <time>1970-01-01T00:00:00+00:00</time>
        <ele>231.0</ele>
      </trkpt>
      <trkpt lat="50.315479" lon="7.58487">
        <time>1970-01-01T00:00:00+00:00</time>
        <ele>216.0</ele>
      </trkpt>
      <trkpt lat="50.315259" lon="7.585012">
        <time>1970-01-01T00:00:00+00:00</time>
        <ele>209.0</ele>
      </trkpt>
      <trkpt lat="50.314967" lon="7.585146">
        <time>1970-01-01T00:00:00+00:00</time>
        <ele>204.0</ele>
      </trkpt>
      <trkpt lat="50.314607" lon="7.585159">
        <time>1970-01-01T00:00:00+00:00</time>
        <ele>203.0</ele>
      </trkpt>
      <trkpt lat="50.314561" lon="7.585232">
        <time>1970-01-01T00:00:00+00:00</time>
        <ele>200.0</ele>
      </trkpt>
      <trkpt lat="50.314561" lon="7.585232">
        <time>1970-01-01T00:00:00+00:00</time>
        <ele>200.0</ele>
      </trkpt>
      <trkpt lat="50.314607" lon="7.585159">
        <time>1970-01-01T00:00:00+00:00</time>
        <ele>203.0</ele>
      </trkpt>
      <trkpt lat="50.314967" lon="7.585146">
        <time>1970-01-01T00:00:00+00:00</time>
        <ele>204.0</ele>
      </trkpt>
      <trkpt lat="50.315259" lon="7.585012">
        <time>1970-01-01T00:00:00+00:00</time>
        <ele>209.0</ele>
      </trkpt>
      <trkpt lat="50.315479" lon="7.58487">
        <time>1970-01-01T00:00:00+00:00</time>
        <ele>216.0</ele>
      </trkpt>
      <trkpt lat="50.316034" lon="7.584451">
        <time>1970-01-01T00:00:00+00:00</time>
        <ele>231.0</ele>
      </trkpt>
      <trkpt lat="50.31622" lon="7.584288">
        <time>1970-01-01T00:00:00+00:00</time>
        <ele>233.0</ele>
      </trkpt>
      <trkpt lat="50.31649" lon="7.583896">
        <time>1970-01-01T00:00:00+00:00</time>
        <ele>236.0</ele>
      </trkpt>
      <trkpt lat="50.31663" lon="7.583786">
        <time>1970-01-01T00:00:00+00:00</time>
        <ele>235.0</ele>
      </trkpt>
      <trkpt lat="50.316432" lon="7.5832">
        <time>1970-01-01T00:00:00+00:00</time>
        <ele>234.0</ele>
      </trkpt>
      <trkpt lat="50.316847" lon="7.583204">
        <time>1970-01-01T00:00:00+00:00</time>
        <ele>232.0</ele>
      </trkpt>
      <trkpt lat="50.317089" lon="7.583157">
        <time>1970-01-01T00:00:00+00:00</time>
        <ele>230.0</ele>
      </trkpt>
      <trkpt lat="50.317275" lon="7.583127">
        <time>1970-01-01T00:00:00+00:00</time>
        <ele>229.0</ele>
      </trkpt>
      <trkpt lat="50.317351" lon="7.583101">
        <time>1970-01-01T00:00:00+00:00</time>
        <ele>229.0</ele>
      </trkpt>
      <trkpt lat="50.317439" lon="7.582998">
        <time>1970-01-01T00:00:00+00:00</time>
        <ele>228.0</ele>
      </trkpt>
      <trkpt lat="50.317729" lon="7.582861">
        <time>1970-01-01T00:00:00+00:00</time>
        <ele>226.0</ele>
      </trkpt>
      <trkpt lat="50.318135" lon="7.582603">
        <time>1970-01-01T00:00:00+00:00</time>
        <ele>220.0</ele>
      </trkpt>
      <trkpt lat="50.318623" lon="7.582243">
        <time>1970-01-01T00:00:00+00:00</time>
        <ele>215.0</ele>
      </trkpt>
      <trkpt lat="50.318886" lon="7.581968">
        <time>1970-01-01T00:00:00+00:00</time>
        <ele>208.0</ele>
      </trkpt>
      <trkpt lat="50.319338" lon="7.581691">
        <time>1970-01-01T00:00:00+00:00</time>
        <ele>200.0</ele>
      </trkpt>
      <trkpt lat="50.319593" lon="7.581655">
        <time>1970-01-01T00:00:00+00:00</time>
        <ele>195.0</ele>
      </trkpt>
      <trkpt lat="50.320205" lon="7.581941">
        <time>1970-01-01T00:00:00+00:00</time>
        <ele>186.0</ele>
      </trkpt>
      <trkpt lat="50.320561" lon="7.582145">
        <time>1970-01-01T00:00:00+00:00</time>
        <ele>181.0</ele>
      </trkpt>
      <trkpt lat="50.320842" lon="7.582491">
        <time>1970-01-01T00:00:00+00:00</time>
        <ele>177.0</ele>
      </trkpt>
      <trkpt lat="50.3212" lon="7.583016">
        <time>1970-01-01T00:00:00+00:00</time>
        <ele>169.0</ele>
      </trkpt>
      <trkpt lat="50.321566" lon="7.584078">
        <time>1970-01-01T00:00:00+00:00</time>
        <ele>156.0</ele>
      </trkpt>
      <trkpt lat="50.321777" lon="7.584323">
        <time>1970-01-01T00:00:00+00:00</time>
        <ele>141.0</ele>
      </trkpt>
      <trkpt lat="50.321781" lon="7.584217">
        <time>1970-01-01T00:00:00+00:00</time>
        <ele>144.0</ele>
      </trkpt>
      <trkpt lat="50.32176" lon="7.583979">
        <time>1970-01-01T00:00:00+00:00</time>
        <ele>148.0</ele>
      </trkpt>
      <trkpt lat="50.321694" lon="7.583641">
        <time>1970-01-01T00:00:00+00:00</time>
        <ele>152.0</ele>
      </trkpt>
      <trkpt lat="50.321696" lon="7.583513">
        <time>1970-01-01T00:00:00+00:00</time>
        <ele>152.0</ele>
      </trkpt>
      <trkpt lat="50.321673" lon="7.583358">
        <time>1970-01-01T00:00:00+00:00</time>
        <ele>154.0</ele>
      </trkpt>
      <trkpt lat="50.321685" lon="7.583253">
        <time>1970-01-01T00:00:00+00:00</time>
        <ele>154.0</ele>
      </trkpt>
      <trkpt lat="50.321856" lon="7.583732">
        <time>1970-01-01T00:00:00+00:00</time>
        <ele>145.0</ele>
      </trkpt>
      <trkpt lat="50.321967" lon="7.584109">
        <time>1970-01-01T00:00:00+00:00</time>
        <ele>139.0</ele>
      </trkpt>
      <trkpt lat="50.322198" lon="7.584366">
        <time>1970-01-01T00:00:00+00:00</time>
        <ele>126.0</ele>
      </trkpt>
      <trkpt lat="50.322329" lon="7.584663">
        <time>1970-01-01T00:00:00+00:00</time>
        <ele>115.0</ele>
      </trkpt>
      <trkpt lat="50.322352" lon="7.584583">
        <time>1970-01-01T00:00:00+00:00</time>
        <ele>117.0</ele>
      </trkpt>
      <trkpt lat="50.322411" lon="7.584597">
        <time>1970-01-01T00:00:00+00:00</time>
        <ele>116.0</ele>
      </trkpt>
      <trkpt lat="50.32252" lon="7.584792">
        <time>1970-01-01T00:00:00+00:00</time>
        <ele>107.0</ele>
      </trkpt>
      <trkpt lat="50.322903" lon="7.585296">
        <time>1970-01-01T00:00:00+00:00</time>
        <ele>84.0</ele>
      </trkpt>
      <trkpt lat="50.323094" lon="7.585346">
        <time>1970-01-01T00:00:00+00:00</time>
        <ele>83.0</ele>
      </trkpt>
      <trkpt lat="50.323081" lon="7.585449">
        <time>1970-01-01T00:00:00+00:00</time>
        <ele>81.0</ele>
      </trkpt>
      <trkpt lat="50.323112" lon="7.585695">
        <time>1970-01-01T00:00:00+00:00</time>
        <ele>75.0</ele>
      </trkpt>
      <trkpt lat="50.322911" lon="7.58576">
        <time>1970-01-01T00:00:00+00:00</time>
        <ele>74.0</ele>
      </trkpt>
      <trkpt lat="50.322916" lon="7.585795">
        <time>1970-01-01T00:00:00+00:00</time>
        <ele>73.0</ele>
      </trkpt>
      <trkpt lat="50.322975" lon="7.585777">
        <time>1970-01-01T00:00:00+00:00</time>
        <ele>73.0</ele>
      </trkpt>
      <trkpt lat="50.322986" lon="7.585862">
        <time>1970-01-01T00:00:00+00:00</time>
        <ele>72.0</ele>
      </trkpt>
      <trkpt lat="50.322825" lon="7.585906">
        <time>1970-01-01T00:00:00+00:00</time>
        <ele>72.0</ele>
      </trkpt>
      <trkpt lat="50.322291" lon="7.586054">
        <time>1970-01-01T00:00:00+00:00</time>
        <ele>77.0</ele>
      </trkpt>
      <trkpt lat="50.321424" lon="7.586293">
        <time>1970-01-01T00:00:00+00:00</time>
        <ele>85.0</ele>
      </trkpt>
      <trkpt lat="50.321341" lon="7.586185">
        <time>1970-01-01T00:00:00+00:00</time>
        <ele>90.0</ele>
      </trkpt>
      <trkpt lat="50.32126" lon="7.586078">
        <time>1970-01-01T00:00:00+00:00</time>
        <ele>96.0</ele>
      </trkpt>
      <trkpt lat="50.320872" lon="7.586181">
        <time>1970-01-01T00:00:00+00:00</time>
        <ele>101.0</ele>
      </trkpt>
    </trkseg>
  </trk>
</gpx>
